This demonstration page uses our WeatherBlox Daily Observations layout. Learn more.

36.17497, -115.13722

Hourly Observations for April 28, 2018

Temp ( °F °C ) Dew Point ( °F °C ) Humidity (%) Winds ( mph kmh ) Pressure ( in mb ) Visibility ( mi km ) Precip ( " mm )
12:53 am 00:53 Clear 76 24.4 13 -10.6 9 9 SSW 13 20 29.71 1006 10 16.09344 0 0
1:53 am 01:53 Clear 72 22.2 13 -10.6 10 10 SSE 10 17 29.71 1006 10 16.09344 0 0
2:53 am 02:53 Clear 72 22.2 12 -11.1 10 10 SSE 14 22 29.71 1006 10 16.09344 0 0
3:53 am 03:53 Clear 69 20.6 16 -8.9 13 13 ESE 10 17 29.71 1006 10 16.09344 0 0
4:53 am 04:53 Clear 68 20 12 -11.1 11 11 SSE 7 11 29.71 1006 10 16.09344 0 0
5:53 am 05:53 Sunny 67 19.4 10 -12.2 11 11 S 7 11 29.71 1006 10 16.09344 0 0
6:53 am 06:53 Sunny 67 19.4 9 -12.8 10 10 S 13 20 29.71 1006 10 16.09344 0 0
7:53 am 07:53 Sunny 68 20 13 -10.6 12 12 WSW 5 7 29.74 1007 10 16.09344 0 0
8:53 am 08:53 Sunny 71 21.7 11 -11.7 10 10 WNW 3 6 29.74 1007 10 16.09344 0 0
9:53 am 09:53 Sunny 75 23.9 10 -12.2 8 8 N 8 13 29.77 1008 10 16.09344 0 0
10:53 am 10:53 Sunny 77 25 8 -13.3 7 7 N 3 6 29.74 1007 10 16.09344 0 0
11:53 am 11:53 Sunny 82 27.8 8 -13.3 6 6 undefined N/A 29.74 1007 10 16.09344 0 0
12:53 pm 12:53 Sunny 84 28.9 8 -13.3 5 5 N 8 13 29.71 1006 10 16.09344 0 0
1:49 pm 13:49 Sunny 84 29 10 -12 6 6 SSW 14 22 29.56 1001 10 16.09344 0 0
1:53 pm 13:53 Sunny 86 30 9 -12.8 5 5 SW 16 26 29.68 1005 10 16.09344 0 0
2:53 pm 14:53 Sunny 86 30 12 -11.1 6 6 WSW 14 22 29.68 1005 10 16.09344 0 0
3:53 pm 15:53 Sunny 86 30 12 -11.1 6 6 WSW 17 28 29.65 1004 10 16.09344 0 0
4:53 pm 16:53 Sunny 86 30 15 -9.4 7 7 WSW 14 22 29.65 1004 10 16.09344 0 0
5:53 pm 17:53 Sunny 84 28.9 16 -8.9 8 8 SW 17 28 29.65 1004 10 16.09344 0 0
6:53 pm 18:53 Sunny 82 27.8 14 -10 8 8 WSW 16 26 29.62 1003 10 16.09344 0 0
7:53 pm 19:53 Clear 80 26.7 14 -10 8 8 SW 15 24 29.65 1004 10 16.09344 0 0
8:53 pm 20:53 Clear 78 25.6 12 -11.1 8 8 SW 17 28 29.65 1004 10 16.09344 0 0
9:53 pm 21:53 Clear 77 25 13 -10.6 9 9 SSW 12 19 29.68 1005 10 16.09344 0 0
10:53 pm 22:53 Clear 74 23.3 12 -11.1 9 9 SSW 16 26 29.68 1005 10 16.09344 0 0
11:53 pm 23:53 Clear 72 22.2 13 -10.6 10 10 SSW 16 26 29.68 1005 10 16.09344 0 0

Powered by AerisWeather